sat.trackr.live / text

‹ back to catalog

STARLINK-6157

NORAD 56379 · 2023-061F

PAYLOAD ACTIVE UNKNOWN

§ Identity

Operator
Country
US
Launch date
2023-05-04
Launch site
AFETR
Launch vehicle
Mass (kg)
RCS (m²)

Purposes: comms

External: N2YO · Heavens-Above · Gunter

§ Orbital elements

Epoch: 2026-05-25T00:14:30.973344Z

Period
94.27 min
Inclination
43.0043°
Eccentricity
0.0001656
Mean motion
15.27577788 rev/d
Perigee alt
481.9 km
Apogee alt
484.2 km
Semi-major
6,861.2 km
B*
3.4988e-5
RAAN
126.7306°
Arg perigee
269.0743°
Mean anomaly
90.9919°
Rev number
16,952

§ Raw data

STARLINK-61571 56379U 23061F   26145.01008071  .00000701  00000+0  34988-4 0  99902 56379  43.0043 126.7306 0001656 269.0743  90.9919 15.27577788169527

JSON: /api/v1/satellites/56379 · /tle

For live sub-satellite position, see the globe view (requires WebGL).

§ Visibility from observer

Set your observer location to see the next 7 days of passes ≥ 10°. The values pass through the URL so the page stays shareable.

No JS? Fill the form by hand. The geolocation button needs JavaScript.